This is the latest recevied weather packets stored in our database for station/object KQ4JKJ. If no packets are shown the sender has not sent any weather packets the latest 10 day(s).
| Time | Temp. | Humidity | Pressure | Rain* | Wind** | Luminosity | Snow |
|---|---|---|---|---|---|---|---|
| 1777379557 | 25° C | 83% | 1013.2 hPa | 0 mm | - | 131 W/m² | - |
| 1777379252 | 25° C | 82% | 1013.2 hPa | 0 mm | - | 132 W/m² | - |
| 1777378947 | 25° C | 83% | 1013.2 hPa | 0 mm | - | 149 W/m² | - |
| 1777378643 | 24.44° C | 85% | 1013.2 hPa | 0 mm | - | 152 W/m² | - |
| 1777378340 | 24.44° C | 86% | 1013 hPa | 0 mm | - | 79 W/m² | - |
| 1777378040 | 24.44° C | 87% | 1013.2 hPa | 0 mm | - | 76 W/m² | - |
| 1777377734 | 23.89° C | 88% | 1013.1 hPa | 0 mm | - | 93 W/m² | - |
| 1777377429 | 23.33° C | 89% | 1013.3 hPa | 0 mm | - | 43 W/m² | - |
| 1777377125 | 23.33° C | 89% | 1013 hPa | 0 mm | - | 48 W/m² | - |
| 1777376823 | 23.33° C | 90% | 1013 hPa | 0 mm | - | 44 W/m² | - |
| 1777376514 | 22.78° C | 92% | 1012.9 hPa | 0 mm | - | 46 W/m² | - |
| 1777376210 | 22.78° C | 93% | 1012.9 hPa | 0 mm | - | 54 W/m² | - |
| 1777375904 | 22.22° C | 95% | 1012.9 hPa | 0 mm | - | 40 W/m² | - |
| 1777375599 | 21.67° C | 97% | 1012.5 hPa | 0 mm | - | 30 W/m² | - |
| 1777375294 | 21.67° C | 99% | 1012.5 hPa | 0 mm | - | 26 W/m² | - |
| 1777374991 | 21.11° C | 99% | 1012.5 hPa | 0 mm | - | 21 W/m² | - |
| 1777374687 | 21.11° C | 99% | 1012.7 hPa | 0 mm | - | 15 W/m² | - |
| 1777374383 | 20.56° C | 99% | 1012.5 hPa | 0 mm | - | 12 W/m² | - |
| 1777374075 | 20.56° C | 99% | 1012.4 hPa | 0 mm | - | 11 W/m² | - |
| 1777373770 | 20.56° C | 99% | 1012.4 hPa | 0 mm | - | 6 W/m² | - |
| 1777373468 | 20.56° C | 99% | 1012.3 hPa | 0 mm | - | 3 W/m² | - |
| 1777373162 | 20.56° C | 99% | 1012.2 hPa | 0 mm | - | 2 W/m² | - |
| 1777372858 | 20.56° C | 99% | 1012.2 hPa | 0 mm | - | 1 W/m² | - |
| 1777372553 | 20.56° C | 99% | 1012.2 hPa | 0 mm | - | 0 W/m² | - |
| 1777372252 | 20.56° C | 99% | 1012.1 hPa | 0 mm | - | 0 W/m² | - |
* Rain latest hour (hover to see other rain measurements)
** Current wind speed in m/s (hover to see current wind gust speed)